Messina, Italy

6:12 PM CEST on August 20, 2017 (GMT +0200)
Messina

Weather History for LICF - November, 2012

Change the Weather History Date:

Sunday, November 4, 2012

  Actual Average (LICR) Record (LICR)
Temperature  
Mean Temperature 68 °F -  
Max Temperature 73 °F 65 °F 82 °F (2008)
Min Temperature 62 °F 56 °F 44 °F (2006)
Cooling Degree Days 2    
Growing Degree Days 18 (Base 50)    
Moisture  
Dew Point 55 °F    
Average Humidity 64    
Maximum Humidity 78    
Minimum Humidity 42    
Precipitation  
Precipitation 0.00 in 0.14 in - ()
Sea Level Pressure  
Sea Level Pressure 30.01 in    
Wind  
Wind Speed 3 mph ()    
Max Wind Speed 8 mph    
Max Gust Speed -    
Visibility 7.6 miles    
Events      
Averages and records for this station are not official NWS values.
T = Trace of Precipitation, MM = Missing Value Source: Averaged Metar Reports

Daily Weather History Graph

Daily Weather History Graph

Search for Another Location

Airport or City:

Trip Planner

Search our weather history database for the weather conditions in past years. The results will help you decide how hot, cold, wet, or windy it might be!

Date:

Astronomy

Nov. 04, 2012 Rise Set
Actual Time 6:27 AM CET 4:54 PM CET
Civil Twilight 5:59 AM CET 5:22 PM CET
Nautical Twilight 5:28 AM CET 5:53 PM CET
Astronomical Twilight 4:57 AM CET 6:24 PM CET
Moon 9:17 PM CET (11/4) 10:58 AM CET (11/4)
Length of Visible Light 11h 22m
Length of Day
10h 27m
Waning Gibbous, 74% of the Moon is Illuminated
Nov 4
Waning Gibbous
Nov 7
Last Quarter
Nov 13
New
Nov 20
First Quarter
Nov 28
Full

Hourly Weather History & Observations

Time (CET) Temp. Dew Point Humidity Pressure Visibility Wind Dir Wind Speed Gust Speed Precip Events Conditions
12:55 AM 64.4 °F 55.4 °F 73% 30.04 in 6.2 mi West 2.3 mph - N/A   Partly Cloudy
1:00 AM 64 °F 55 °F 65% 30.06 in 12 mi West 2.3 mph - -   Scattered Clouds
1:55 AM 64.4 °F 53.6 °F 68% 30.04 in 6.2 mi WSW 3.5 mph - N/A   Partly Cloudy
2:55 AM 62.6 °F 55.4 °F 77% 30.04 in 6.2 mi WSW 3.5 mph - N/A   Partly Cloudy
3:55 AM 64.4 °F 55.4 °F 73% 30.04 in 6.2 mi WSW 2.3 mph - N/A   Partly Cloudy
4:55 AM 64.4 °F 55.4 °F 73% 30.04 in 6.2 mi West 2.3 mph - N/A   Partly Cloudy
5:55 AM 64.4 °F 55.4 °F 73% 30.04 in 6.2 mi West 3.5 mph - N/A   Partly Cloudy
6:55 AM 62.6 °F 51.8 °F 68% 30.04 in - WSW 3.5 mph - N/A   Clear
7:00 AM 62 °F 52 °F 61% 30.04 in 12 mi WSW 3.5 mph - -  
7:55 AM 64.4 °F 51.8 °F 64% 30.04 in - WSW 2.3 mph - N/A   Clear
8:55 AM 68.0 °F 53.6 °F 60% 30.04 in - SSW 4.6 mph - N/A   Clear
9:55 AM 68.0 °F 55.4 °F 64% 30.04 in - SW 8.1 mph - N/A   Clear
10:55 AM 69.8 °F 53.6 °F 56% 30.04 in - SW 6.9 mph - N/A   Clear
11:55 AM 71.6 °F 53.6 °F 53% 30.04 in - SSW 3.5 mph - N/A   Clear
12:55 PM 71.6 °F 53.6 °F 53% 30.01 in 6.2 mi South 3.5 mph - N/A   Partly Cloudy
1:00 PM 72 °F 54 °F 42% 30.02 in 12 mi South 3.5 mph - -   Scattered Clouds
1:55 PM 71.6 °F 55.4 °F 57% 29.98 in 6.2 mi SSW 3.5 mph - N/A   Partly Cloudy
2:55 PM 71.6 °F 57.2 °F 60% 29.98 in 6.2 mi SSW 2.3 mph - N/A   Partly Cloudy
3:55 PM 69.8 °F 55.4 °F 60% 29.98 in 6.2 mi SSW 2.3 mph - N/A   Partly Cloudy
4:55 PM 69.8 °F 57.2 °F 64% 29.98 in - Calm Calm - N/A   Clear
5:55 PM 68.0 °F 57.2 °F 68% 29.98 in - Calm Calm - N/A   Clear
6:55 PM 68.0 °F 55.4 °F 64% 29.98 in - WSW 4.6 mph - N/A   Clear
7:00 PM 68 °F 56 °F 56% 29.99 in 12 mi WSW 4.6 mph - -   Clear
7:55 PM 68.0 °F 55.4 °F 64% 29.98 in - WSW 5.8 mph - N/A   Clear
8:55 PM 68.0 °F 55.4 °F 64% 29.98 in 6.2 mi WSW 4.6 mph - N/A   Partly Cloudy
9:55 PM 68.0 °F 57.2 °F 68% 29.98 in 6.2 mi WSW 3.5 mph - N/A   Partly Cloudy
10:55 PM 68.0 °F 59.0 °F 73% 29.95 in 6.2 mi WSW 3.5 mph - N/A   Partly Cloudy
11:55 PM 68.0 °F 60.8 °F 78% 29.95 in - WSW 6.9 mph - N/A   Clear